Hourly Weather Kithor

Today, 27 July, Tuesday

Time Temperature Precipitation Wind Pressure Humidity
00:00 +30°C° 0.2 mm 1 mps 728 mmHg 76%
01:00 +30°C° 0.2 mm 1 mps 728 mmHg 78%
02:00 +30°C° 0.2 mm 1 mps 728 mmHg 79%
03:00 +29°C° 0.1 mm 1 mps 728 mmHg 80%
04:00 +27°C° 0.1 mm 0 mps 727 mmHg 81%
05:00 +27°C° 0.1 mm 0 mps 727 mmHg 82%
06:00 +28°C° 0.1 mm 0 mps 728 mmHg 81%
07:00 +28°C° 0.1 mm 0 mps 728 mmHg 80%
08:00 +30°C° 0.1 mm 1 mps 728 mmHg 79%
09:00 +29°C° 0 mm 0 mps 728 mmHg 76%
10:00 +29°C° 0 mm 0 mps 728 mmHg 74%
11:00 +30°C° 0 mm 0 mps 728 mmHg 71%
12:00 +30°C° 0 mm 0 mps 728 mmHg 71%
13:00 +32°C° 0 mm 1 mps 727 mmHg 71%
14:00 +32°C° 0 mm 1 mps 727 mmHg 70%
15:00 +32°C° 0.4 mm 1 mps 727 mmHg 73%
16:00 +31°C° 0.4 mm 1 mps 726 mmHg 76%
17:00 +31°C° 0.4 mm 1 mps 726 mmHg 78%
18:00 +30°C° 1.2 mm 1 mps 726 mmHg 81%
19:00 +30°C° 1.2 mm 1 mps 726 mmHg 84%
20:00 +29°C° 1.2 mm 1 mps 727 mmHg 87%
21:00 +29°C° 3.4 mm 2 mps 727 mmHg 88%
22:00 +29°C° 3.4 mm 3 mps 727 mmHg 90%
23:00 +28°C° 3.4 mm 4 mps 728 mmHg 91%

Tomorrow, 28 July, Wednesday

Time Temperature Precipitation Wind Pressure Humidity
00:00 +28°C° 0.4 mm 3 mps 728 mmHg 90%
01:00 +28°C° 0.4 mm 2 mps 727 mmHg 90%
02:00 +27°C° 0.4 mm 1 mps 727 mmHg 89%
03:00 +27°C° 1.5 mm 1 mps 727 mmHg 91%
04:00 +27°C° 1.5 mm 1 mps 727 mmHg 92%
05:00 +27°C° 1.5 mm 1 mps 727 mmHg 94%
06:00 +27°C° 3.1 mm 1 mps 728 mmHg 94%
07:00 +27°C° 3.1 mm 1 mps 729 mmHg 95%
08:00 +27°C° 3.1 mm 1 mps 729 mmHg 95%
09:00 +28°C° 1.1 mm 1 mps 730 mmHg 94%
10:00 +28°C° 1.1 mm 1 mps 730 mmHg 92%
11:00 +28°C° 1.1 mm 1 mps 730 mmHg 91%
12:00 +28°C° 1 mm 1 mps 730 mmHg 89%
13:00 +29°C° 1 mm 1 mps 729 mmHg 88%
14:00 +27°C° 1 mm 0 mps 729 mmHg 87%
15:00 +27°C° 0.2 mm 0 mps 729 mmHg 86%
16:00 +27°C° 0.2 mm 0 mps 728 mmHg 85%
17:00 +27°C° 0.2 mm 0 mps 728 mmHg 85%
18:00 +27°C° 0.1 mm 0 mps 728 mmHg 86%
19:00 +27°C° 0.1 mm 0 mps 729 mmHg 88%
20:00 +26°C° 0.1 mm 0 mps 729 mmHg 89%
21:00 +26°C° 0 mm 0 mps 729 mmHg 89%
22:00 +26°C° 0 mm 0 mps 729 mmHg 89%
23:00 +26°C° 0 mm 0 mps 730 mmHg 89%

Day after tomorrow, 29 July, Thursday

Time Temperature Precipitation Wind Pressure Humidity
00:00 +26°C° 0.3 mm 0 mps 729 mmHg 89%
01:00 +26°C° 0.3 mm 0 mps 729 mmHg 89%
02:00 +26°C° 0.3 mm 0 mps 728 mmHg 89%
03:00 +26°C° 0.6 mm 0 mps 728 mmHg 89%
04:00 +26°C° 0.6 mm 0 mps 728 mmHg 89%
05:00 +28°C° 0.6 mm 1 mps 728 mmHg 89%
06:00 +29°C° 0.4 mm 1 mps 729 mmHg 86%
07:00 +29°C° 0.4 mm 1 mps 729 mmHg 82%
08:00 +30°C° 0.4 mm 1 mps 729 mmHg 79%
09:00 +31°C° 1 mm 1 mps 730 mmHg 77%
10:00 +31°C° 1 mm 2 mps 730 mmHg 75%
11:00 +32°C° 1 mm 2 mps 730 mmHg 73%
12:00 +32°C° 0.3 mm 2 mps 729 mmHg 70%
13:00 +34°C° 0.3 mm 3 mps 729 mmHg 67%
14:00 +35°C° 0.3 mm 3 mps 728 mmHg 65%
15:00 +34°C° 0.5 mm 2 mps 728 mmHg 66%
16:00 +34°C° 0.5 mm 2 mps 728 mmHg 67%
17:00 +34°C° 0.5 mm 2 mps 728 mmHg 69%
18:00 +32°C° 1.6 mm 1 mps 728 mmHg 74%
19:00 +30°C° 1.6 mm 1 mps 728 mmHg 79%
20:00 +29°C° 1.6 mm 1 mps 729 mmHg 84%
21:00 +29°C° 0.8 mm 1 mps 729 mmHg 86%
22:00 +29°C° 0.8 mm 1 mps 729 mmHg 88%
23:00 +29°C° 0.8 mm 1 mps 729 mmHg 90%

30 July, Friday

Time Temperature Precipitation Wind Pressure Humidity
00:00 +29°C° 0.6 mm 1 mps 729 mmHg 90%
01:00 +29°C° 0.6 mm 1 mps 728 mmHg 90%
02:00 +28°C° 0.6 mm 1 mps 728 mmHg 90%
03:00 +28°C° 1.4 mm 1 mps 728 mmHg 91%
04:00 +28°C° 1.4 mm 1 mps 728 mmHg 91%
05:00 +28°C° 1.4 mm 1 mps 728 mmHg 92%
06:00 +28°C° 0.7 mm 2 mps 729 mmHg 91%
07:00 +28°C° 0.7 mm 2 mps 729 mmHg 91%
08:00 +28°C° 0.7 mm 2 mps 729 mmHg 90%
09:00 +29°C° 0.3 mm 2 mps 729 mmHg 88%
10:00 +29°C° 0.3 mm 2 mps 730 mmHg 86%
11:00 +29°C° 0.3 mm 2 mps 730 mmHg 84%
12:00 +30°C° 0 mm 3 mps 729 mmHg 81%
13:00 +31°C° 0 mm 3 mps 729 mmHg 78%
14:00 +33°C° 0 mm 3 mps 728 mmHg 75%
15:00 +31°C° 0.4 mm 3 mps 728 mmHg 77%
16:00 +31°C° 0.4 mm 3 mps 728 mmHg 78%
17:00 +31°C° 0.4 mm 3 mps 728 mmHg 79%
18:00 +30°C° 1.5 mm 2 mps 728 mmHg 83%
19:00 +29°C° 1.5 mm 2 mps 729 mmHg 86%
20:00 +28°C° 1.5 mm 2 mps 729 mmHg 90%
21:00 +28°C° 0.5 mm 2 mps 729 mmHg 91%
22:00 +28°C° 0.5 mm 2 mps 729 mmHg 91%
23:00 +28°C° 0.5 mm 2 mps 729 mmHg 92%

31 July, Saturday

Time Temperature Precipitation Wind Pressure Humidity
00:00 +28°C° 0.5 mm 2 mps 729 mmHg 92%
01:00 +28°C° 0.5 mm 2 mps 729 mmHg 93%
02:00 +28°C° 0.5 mm 2 mps 729 mmHg 94%
03:00 +28°C° 1.5 mm 2 mps 729 mmHg 94%
04:00 +28°C° 1.5 mm 2 mps 729 mmHg 94%
05:00 +28°C° 1.5 mm 2 mps 729 mmHg 94%
06:00 +28°C° 1.5 mm 2 mps 729 mmHg 91%
07:00 +29°C° 1.5 mm 3 mps 730 mmHg 87%
08:00 +30°C° 1.5 mm 4 mps 730 mmHg 84%
09:00 +30°C° 1.1 mm 4 mps 730 mmHg 82%
10:00 +32°C° 1.1 mm 4 mps 730 mmHg 79%
11:00 +32°C° 1.1 mm 4 mps 730 mmHg 77%
12:00 +33°C° 1.5 mm 4 mps 730 mmHg 77%
13:00 +33°C° 1.5 mm 4 mps 730 mmHg 77%
14:00 +33°C° 1.5 mm 5 mps 729 mmHg 77%
15:00 +32°C° 1.5 mm 4 mps 729 mmHg 81%
16:00 +30°C° 1.5 mm 4 mps 729 mmHg 86%
17:00 +29°C° 1.5 mm 3 mps 729 mmHg 90%
18:00 +28°C° 1.2 mm 3 mps 730 mmHg 92%
19:00 +28°C° 1.2 mm 3 mps 730 mmHg 93%
20:00 +28°C° 1.2 mm 3 mps 730 mmHg 94%
21:00 +28°C° 1.6 mm 2 mps 730 mmHg 95%
22:00 +27°C° 1.6 mm 2 mps 730 mmHg 95%
23:00 +27°C° 1.6 mm 2 mps 731 mmHg 95%

1 August, Sunday

Time Temperature Precipitation Wind Pressure Humidity
00:00 +27°C° 2.5 mm 2 mps 730 mmHg 95%
01:00 +27°C° 2.5 mm 2 mps 730 mmHg 95%
02:00 +27°C° 2.5 mm 2 mps 729 mmHg 95%
03:00 +27°C° 1 mm 2 mps 729 mmHg 94%
04:00 +27°C° 1 mm 2 mps 729 mmHg 94%
05:00 +27°C° 1 mm 2 mps 729 mmHg 94%
06:00 +27°C° 0.1 mm 2 mps 730 mmHg 92%
07:00 +28°C° 0.1 mm 2 mps 730 mmHg 91%
08:00 +28°C° 0.1 mm 2 mps 731 mmHg 90%
09:00 +29°C° 0.9 mm 2 mps 731 mmHg 85%
10:00 +30°C° 0.9 mm 2 mps 731 mmHg 81%
11:00 +31°C° 0.9 mm 2 mps 731 mmHg 76%
12:00 +32°C° 0.9 mm 2 mps 730 mmHg 74%
13:00 +32°C° 0.9 mm 2 mps 729 mmHg 72%
14:00 +34°C° 0.9 mm 2 mps 729 mmHg 70%
15:00 +34°C° 0.5 mm 2 mps 729 mmHg 72%
16:00 +32°C° 0.5 mm 2 mps 728 mmHg 75%
17:00 +32°C° 0.5 mm 2 mps 728 mmHg 78%
18:00 +31°C° 0.9 mm 1 mps 728 mmHg 80%
19:00 +30°C° 0.9 mm 1 mps 729 mmHg 82%
20:00 +28°C° 0.9 mm 0 mps 729 mmHg 83%
21:00 +29°C° 0.8 mm 1 mps 729 mmHg 86%
22:00 +29°C° 0.8 mm 1 mps 729 mmHg 88%
23:00 +29°C° 0.8 mm 2 mps 730 mmHg 90%
Show more